Dewpoint
-9 -9 -9 -11 -12 -15 -12 -8 -9 -10 -13 -19 -26 -28 -29 -28 -27 -27 -26 -25 -26 -26 -27 -19 -9 -7 -6
-9 -9 -9 -10 -12 -15 -11 -8 -9 -10 -14 -20 -26 -28 -28 -27 -26 -26 -25 -25 -25 -26 -28 -29 -28 -21 -13
-9 -9 -9 -10 -12 -13 -11 -8 -9 -11 -15 -20 -24 -27 -27 -26 -26 -25 -24 -25 -25 -28 -29 -31 -31 -31 -30
-9 -9 -9 -10 -12 -13 -10 -8 -9 -12 -16 -19 -24 -27 -26 -25 -25 -24 -25 -25 -27 -29 -31 -32 -32 -32 -32
-10 -9 -9 -9 -11 -12 -9 -9 -10 -12 -14 -18 -23 -26 -25 -25 -25 -24 -25 -26 -29 -31 -31 -32 -31 -32 -31
-11 -10 -9 -9 -12 -12 -8 -9 -10 -11 -12 -19 -25 -26 -25 -25 -24 -24 -25 -28 -30 -31 -31 -31 -31 -31 -31
-11 -11 -10 -10 -11 -11 -8 -8 -11 -13 -13 -22 -25 -26 -24 -25 -24 -25 -27 -29 -29 -31 -30 -29 -30 -30 -30
-12 -11 -11 -12 -12 -9 -9 -10 -11 -5 -13 -24 -26 -24 -24 -26 -23 -26 -27 -27 -29 -30 -29 -29 -29 -29 -30
-12 -12 -12 -13 -10 -9 -8 -9 -3 -5 -18 -26 -26 -25 -25 -26 -24 -26 -26 -27 -30 -30 -29 -29 -29 -29 -29
-12 -12 -14 -12 -10 -9 -8 -4 -4 -14 -21 -23 -25 -24 -26 -25 -23 -26 -26 -28 -30 -30 -29 -29 -29 -29 -29
-12 -13 -14 -11 -10 -8 -5 -5 -9 -19 -22 -24 -23 -24 -26 -25 -26 -26 -27 -29 -30 -30 -30 -29 -29 -29 -29
-13 -14 -13 -11 -8 -5 -5 -6 -10 -16 -23 -22 -23 -24 -25 -25 -25 -26 -29 -30 -30 -30 -30 -29 -29 -29 -29
-13 -14 -13 -10 -5 -5 -6 -8 -14 -22 -20 -22 -23 -25 -25 -24 -25 -27 -29 -31 -30 -29 -30 -29 -28 -28 -28
-14 -14 -12 -6 -5 -6 -6 -8 -21 -18 -22 -22 -22 -24 -25 -24 -25 -27 -28 -28 -28 -28 -28 -29 -29 -27 -26
-15 -14 -7 -5 -4 -4 -5 -18 -14 -22 -21 -21 -22 -24 -24 -25 -26 -27 -28 -28 -27 -27 -26 -27 -28 -24 -23
-15 -9 -5 -4 -3 -5 -15 -11 -20 -21 -21 -21 -21 -24 -24 -25 -27 -27 -28 -28 -27 -26 -25 -26 -26 -23 -23
-13 -6 -3 -3 -5 -13 -9 -17 -21 -20 -21 -21 -22 -24 -25 -28 -28 -26 -27 -24 -25 -26 -24 -21 -22 -22 -22
Wind_Speed
20 17 19 16 13 11 8 6 5 7 10 12 12 13 13 13 14 16 18 19 20 21 22 22 21 22 23
20 19 20 17 15 12 10 8 6 8 10 12 13 13 13 14 15 16 19 20 21 22 21 21 24 25 26
15 19 20 19 16 14 11 9 7 8 10 12 12 12 12 14 15 16 18 19 19 20 22 24 26 28 29
14 17 18 18 17 15 12 10 9 9 10 12 12 12 13 14 15 16 18 18 19 21 23 25 27 28 29
15 17 19 19 18 15 13 11 10 9 11 12 13 12 13 15 15 16 17 17 19 23 24 26 27 29 30
17 17 17 18 16 16 15 12 9 10 12 13 12 12 13 14 15 15 15 18 21 24 25 27 27 28 30
12 14 15 15 16 16 13 10 9 10 14 13 12 12 13 15 13 14 15 18 22 24 25 27 28 29 30
14 11 13 14 14 12 10 10 8 12 13 12 11 11 14 13 10 13 15 19 22 24 24 27 29 30 31
16 16 16 16 15 14 11 9 10 13 12 11 11 12 13 10 8 13 16 21 23 24 24 28 30 32 32
19 18 17 17 15 13 10 8 11 12 10 10 11 11 8 7 8 15 16 22 23 24 25 28 30 34 35
17 17 17 17 15 13 11 9 11 11 10 10 9 10 9 10 9 13 18 21 23 25 27 27 29 31 36
17 19 18 17 16 12 10 11 10 9 8 8 9 10 10 12 14 16 20 22 26 27 31 30 28 29 28
19 19 18 16 14 11 10 10 9 7 8 8 10 11 11 13 17 21 25 25 26 31 31 31 33 33 35
19 19 18 16 13 11 10 10 8 7 8 9 11 12 12 14 17 20 21 27 30 30 33 34 33 31 30
20 20 19 16 13 12 11 9 7 7 9 11 13 13 14 16 18 17 22 27 29 33 35 38 35 32 29
22 20 17 14 13 11 9 8 7 7 10 12 13 13 14 15 17 15 23 29 32 34 35 38 40 33 27
23 20 16 14 12 10 9 8 7 9 10 12 13 14 16 19 18 19 28 30 34 36 37 36 38 35 31
Wind_Direction
204 203 205 208 207 210 219 243 276 316 334 335 330 336 338 339 342 343 344 346 347 350 354 356 354 353 352
203 205 204 205 207 212 221 241 272 305 324 325 327 329 331 334 337 338 341 342 344 352 353 351 350 349 349
211 208 206 208 210 214 224 240 265 294 312 323 318 317 324 330 333 333 336 340 342 349 351 348 346 345 345
214 213 213 213 212 217 226 241 261 285 307 314 309 312 319 325 328 329 333 338 344 346 345 344 343 344 343
223 218 216 219 221 222 225 237 258 284 301 305 305 309 317 321 324 326 330 338 342 342 342 341 342 342 341
234 232 231 227 219 223 226 237 260 285 299 298 300 304 312 316 316 322 330 337 340 340 338 338 340 340 340
249 248 237 231 227 223 227 241 263 291 303 301 297 296 307 312 308 323 328 336 337 336 335 337 338 341 340
224 225 228 224 218 218 226 239 264 301 301 295 296 297 304 305 293 320 325 334 334 333 333 336 337 339 339
226 221 213 216 216 220 227 241 290 303 291 290 296 305 311 303 285 322 325 329 331 332 332 335 336 336 335
225 217 213 212 212 217 227 261 299 299 293 282 297 315 321 311 286 314 318 325 329 331 331 335 336 334 334
225 220 215 210 212 217 232 268 293 285 287 287 304 311 307 305 311 316 320 324 326 328 330 334 336 335 331
220 214 212 212 215 224 248 280 284 282 281 291 304 308 311 314 320 322 321 329 328 329 331 334 337 335 331
218 212 211 212 217 235 268 279 279 269 287 300 309 315 318 322 324 330 326 330 327 327 329 337 340 338 332
212 212 211 214 226 252 267 279 263 284 293 303 312 316 317 321 325 326 322 324 326 330 334 337 341 341 333
208 211 209 219 238 257 265 245 268 284 298 309 314 314 315 322 327 323 320 323 328 335 336 335 340 343 338
209 209 216 232 250 252 233 248 257 278 295 306 306 307 312 318 325 322 326 331 334 335 336 335 335 345 342
209 211 230 241 242 226 240 242 262 286 297 302 304 307 312 321 334 338 335 334 333 334 334 335 335 340 342
Height
1604 1607 1610 1612 1614 1615 1616 1617 1616 1615 1614 1613 1610 1608 1606 1604 1602 1599 1596 1594 1591 1588 1585 1580 1577 1573 1570
1602 1604 1607 1610 1612 1613 1614 1616 1615 1614 1613 1611 1609 1607 1605 1603 1601 1598 1595 1593 1590 1586 1583 1580 1575 1571 1567
1599 1602 1605 1607 1609 1611 1613 1613 1613 1612 1611 1609 1607 1605 1604 1601 1599 1596 1593 1591 1588 1585 1582 1578 1574 1570 1565
1598 1599 1602 1605 1607 1609 1610 1611 1611 1610 1609 1607 1605 1604 1602 1600 1598 1595 1592 1588 1586 1583 1580 1577 1572 1567 1562
1596 1597 1599 1601 1603 1606 1607 1608 1608 1608 1607 1606 1605 1603 1601 1599 1596 1593 1591 1587 1584 1581 1578 1574 1570 1566 1560
1593 1595 1597 1599 1602 1604 1605 1606 1606 1606 1604 1603 1602 1601 1600 1597 1594 1592 1590 1586 1582 1578 1575 1572 1567 1563 1557
1592 1594 1595 1598 1600 1601 1602 1604 1604 1604 1603 1601 1599 1599 1598 1595 1593 1591 1588 1584 1581 1578 1573 1570 1565 1559 1554
1589 1592 1594 1596 1598 1599 1600 1601 1602 1601 1600 1598 1597 1596 1594 1592 1591 1589 1586 1583 1579 1575 1571 1567 1562 1557 1551
1586 1588 1590 1592 1595 1596 1598 1598 1599 1599 1597 1596 1595 1593 1592 1590 1589 1588 1585 1582 1578 1574 1569 1564 1558 1553 1548
1583 1585 1588 1591 1593 1595 1596 1597 1597 1598 1597 1596 1592 1591 1591 1588 1587 1585 1583 1579 1575 1570 1567 1561 1556 1548 1542
1582 1584 1586 1589 1591 1592 1593 1594 1594 1593 1593 1594 1592 1591 1589 1587 1586 1583 1580 1575 1572 1569 1565 1559 1553 1546 1537
1580 1581 1584 1586 1587 1589 1590 1590 1590 1590 1591 1591 1589 1588 1586 1585 1583 1581 1577 1573 1568 1564 1559 1554 1550 1544 1539
1576 1580 1582 1584 1585 1587 1589 1588 1588 1587 1588 1587 1586 1586 1584 1583 1580 1577 1572 1571 1565 1559 1555 1550 1543 1538 1529
1574 1577 1578 1582 1584 1585 1586 1586 1586 1586 1585 1584 1582 1582 1582 1581 1579 1576 1571 1568 1562 1556 1549 1545 1541 1536 1528
1571 1573 1575 1577 1581 1582 1581 1582 1583 1583 1584 1583 1581 1579 1578 1578 1576 1572 1568 1566 1559 1550 1543 1537 1536 1531 1524
1568 1571 1574 1577 1578 1578 1579 1578 1579 1579 1579 1579 1578 1578 1578 1576 1572 1570 1565 1559 1553 1547 1541 1534 1528 1527 1522
1567 1570 1572 1574 1576 1577 1577 1576 1576 1577 1577 1576 1576 1575 1573 1571 1569 1566 1561 1555 1548 1542 1537 1533 1526 1521 1515